Time,TemperatureF,DewpointF,PressureIn,WindDirection,WindDirectionDegrees,WindSpeedMPH,WindSpeedGustMPH,Humidity,HourlyPrecipIn,Conditions,Clouds,dailyrainin,SoftwareType,DateUTC
2013-04-29 00:10:00,70.3,62.0,29.85,ESE,109,0.0,-999.0,76,-99.99,,,0.00,weatherlink.com 1.10,2013-04-29 05:10:00,
2013-04-29 00:25:00,70.4,63.0,29.85,SE,128,0.0,-999.0,76,-99.99,,,0.00,weatherlink.com 1.10,2013-04-29 05:25:00,
2013-04-29 00:40:00,70.2,62.0,29.84,East,84,0.0,-999.0,76,-99.99,,,0.00,weatherlink.com 1.10,2013-04-29 05:40:00,
2013-04-29 00:55:00,69.7,62.0,29.85,South,184,0.0,-999.0,77,-99.99,,,0.00,weatherlink.com 1.10,2013-04-29 05:55:00,
2013-04-29 01:10:00,69.3,62.0,29.85,SE,129,0.0,-999.0,78,-99.99,,,0.00,weatherlink.com 1.10,2013-04-29 06:10:00,
2013-04-29 01:25:00,68.9,62.0,29.85,SE,129,0.0,-999.0,78,-99.99,,,0.00,weatherlink.com 1.10,2013-04-29 06:25:00,
2013-04-29 01:40:00,68.6,62.0,29.85,SE,128,0.0,-999.0,79,-99.99,,,0.00,weatherlink.com 1.10,2013-04-29 06:40:00,
2013-04-29 01:55:00,68.5,61.0,29.85,South,173,0.0,-999.0,78,-99.99,,,0.00,weatherlink.com 1.10,2013-04-29 06:55:00,
2013-04-29 02:10:00,68.5,61.0,29.84,SSE,166,0.0,-999.0,78,-99.99,,,0.00,weatherlink.com 1.10,2013-04-29 07:10:00,
2013-04-29 02:25:00,68.1,61.0,29.84,SSE,166,0.0,-999.0,78,-99.99,,,0.00,weatherlink.com 1.10,2013-04-29 07:25:00,
2013-04-29 02:40:00,67.5,61.0,29.84,SSW,200,0.0,-999.0,79,-99.99,,,0.00,weatherlink.com 1.10,2013-04-29 07:40:00,
2013-04-29 02:55:00,67.3,61.0,29.84,SSW,200,0.0,-999.0,80,-99.99,,,0.00,weatherlink.com 1.10,2013-04-29 07:55:00,
2013-04-29 03:10:00,66.9,61.0,29.83,SSW,200,0.0,-999.0,81,-99.99,,,0.00,weatherlink.com 1.10,2013-04-29 08:10:00,
2013-04-29 03:25:00,66.6,61.0,29.84,SSW,200,0.0,-999.0,82,-99.99,,,0.00,weatherlink.com 1.10,2013-04-29 08:25:00,
2013-04-29 03:40:00,66.3,61.0,29.84,SSW,200,0.0,-999.0,82,-99.99,,,0.00,weatherlink.com 1.10,2013-04-29 08:40:00,
2013-04-29 03:55:00,65.9,61.0,29.84,SSW,200,0.0,-999.0,83,-99.99,,,0.00,weatherlink.com 1.10,2013-04-29 08:55:00,
2013-04-29 04:10:00,65.5,61.0,29.84,SSW,200,0.0,-999.0,84,-99.99,,,0.00,weatherlink.com 1.10,2013-04-29 09:10:00,
2013-04-29 04:25:00,64.9,60.0,29.84,SSW,200,0.0,-999.0,85,-99.99,,,0.00,weatherlink.com 1.10,2013-04-29 09:25:00,
2013-04-29 04:40:00,64.7,61.0,29.84,SSW,200,0.0,-999.0,86,-99.99,,,0.00,weatherlink.com 1.10,2013-04-29 09:40:00,
2013-04-29 04:55:00,64.4,60.0,29.84,SSW,200,0.0,-999.0,86,-99.99,,,0.00,weatherlink.com 1.10,2013-04-29 09:55:00,
2013-04-29 05:10:00,64.0,60.0,29.84,SSW,200,0.0,-999.0,87,-99.99,,,0.00,weatherlink.com 1.10,2013-04-29 10:10:00,
2013-04-29 05:26:00,63.5,60.0,29.84,SSW,200,0.0,-999.0,87,-99.99,,,0.00,weatherlink.com 1.10,2013-04-29 10:26:00,
2013-04-29 05:41:00,63.1,60.0,29.84,SSW,200,0.0,-999.0,88,-99.99,,,0.00,weatherlink.com 1.10,2013-04-29 10:41:00,
2013-04-29 05:56:00,63.0,60.0,29.84,SSW,200,0.0,-999.0,89,-99.99,,,0.00,weatherlink.com 1.10,2013-04-29 10:56:00,
2013-04-29 06:11:00,62.7,60.0,29.84,SSW,200,0.0,-999.0,89,-99.99,,,0.00,weatherlink.com 1.10,2013-04-29 11:11:00,
2013-04-29 06:26:00,62.3,59.0,29.85,SSW,200,0.0,-999.0,89,-99.99,,,0.00,weatherlink.com 1.10,2013-04-29 11:26:00,
2013-04-29 06:41:00,62.1,59.0,29.86,SSE,155,0.0,-999.0,90,-99.99,,,0.00,weatherlink.com 1.10,2013-04-29 11:41:00,
2013-04-29 06:56:00,61.9,59.0,29.86,SSE,155,0.0,-999.0,90,-99.99,,,0.00,weatherlink.com 1.10,2013-04-29 11:56:00,
2013-04-29 07:11:00,62.4,60.0,29.86,SSE,155,0.0,-999.0,91,-99.99,,,0.00,weatherlink.com 1.10,2013-04-29 12:11:00,
2013-04-29 07:26:00,62.9,60.0,29.86,SSE,155,0.0,-999.0,91,-99.99,,,0.00,weatherlink.com 1.10,2013-04-29 12:26:00,
2013-04-29 07:41:00,63.6,61.0,29.86,SSE,155,0.0,-999.0,91,-99.99,,,0.00,weatherlink.com 1.10,2013-04-29 12:41:00,
2013-04-29 07:56:00,65.2,63.0,29.87,SSE,157,0.0,-999.0,91,-99.99,,,0.00,weatherlink.com 1.10,2013-04-29 12:56:00,
2013-04-29 08:11:00,66.9,63.0,29.87,SSE,157,0.0,-999.0,88,-99.99,,,0.00,weatherlink.com 1.10,2013-04-29 13:11:00,
2013-04-29 08:26:00,68.0,63.0,29.88,SE,126,0.0,-999.0,85,-99.99,,,0.00,weatherlink.com 1.10,2013-04-29 13:26:00,
2013-04-29 08:41:00,70.0,64.0,29.88,SE,126,0.0,-999.0,81,-99.99,,,0.00,weatherlink.com 1.10,2013-04-29 13:41:00,
2013-04-29 08:56:00,71.6,64.0,29.88,SE,146,0.0,-999.0,78,-99.99,,,0.00,weatherlink.com 1.10,2013-04-29 13:56:00,
2013-04-29 09:11:00,73.6,66.0,29.88,SSE,148,0.0,-999.0,76,-99.99,,,0.00,weatherlink.com 1.10,2013-04-29 14:11:00,
2013-04-29 09:26:00,74.4,66.0,29.88,SSE,160,0.0,-999.0,74,-99.99,,,0.00,weatherlink.com 1.10,2013-04-29 14:26:00,
2013-04-29 09:41:00,74.7,66.0,29.88,WSW,241,0.0,-999.0,74,-99.99,,,0.00,weatherlink.com 1.10,2013-04-29 14:41:00,
2013-04-29 09:56:00,75.5,66.0,29.88,WSW,250,0.0,-999.0,72,-99.99,,,0.00,weatherlink.com 1.10,2013-04-29 14:56:00,
2013-04-29 10:11:00,77.3,67.0,29.88,WSW,250,0.0,-999.0,70,-99.99,,,0.00,weatherlink.com 1.10,2013-04-29 15:11:00,
2013-04-29 10:26:00,78.6,67.0,29.87,SSE,163,0.0,-999.0,67,-99.99,,,0.00,weatherlink.com 1.10,2013-04-29 15:26:00,
2013-04-29 10:41:00,79.9,67.0,29.87,WSW,240,0.0,-999.0,65,-99.99,,,0.00,weatherlink.com 1.10,2013-04-29 15:41:00,
2013-04-29 10:56:00,81.1,67.0,29.87,SSE,167,0.0,-999.0,62,-99.99,,,0.00,weatherlink.com 1.10,2013-04-29 15:56:00,
2013-04-29 11:11:00,81.6,66.0,29.88,South,186,0.0,-999.0,59,-99.99,,,0.00,weatherlink.com 1.10,2013-04-29 16:11:00,
2013-04-29 11:26:00,83.0,66.0,29.87,East,100,0.0,-999.0,56,-99.99,,,0.00,weatherlink.com 1.10,2013-04-29 16:26:00,
2013-04-29 11:41:00,83.0,65.0,29.87,SE,126,0.0,-999.0,54,-99.99,,,0.00,weatherlink.com 1.10,2013-04-29 16:41:00,
2013-04-29 11:56:00,83.8,64.0,29.86,ESE,115,1.0,-999.0,51,-99.99,,,0.00,weatherlink.com 1.10,2013-04-29 16:56:00,
2013-04-29 12:11:00,84.8,64.0,29.86,NE,51,0.0,-999.0,50,-99.99,,,0.00,weatherlink.com 1.10,2013-04-29 17:11:00,
2013-04-29 12:26:00,84.1,63.0,29.86,WSW,250,0.0,-999.0,50,-99.99,,,0.00,weatherlink.com 1.10,2013-04-29 17:26:00,
2013-04-29 12:42:00,84.7,63.0,29.85,SW,220,0.0,-999.0,48,-99.99,,,0.00,weatherlink.com 1.10,2013-04-29 17:42:00,
2013-04-29 12:57:00,84.9,63.0,29.85,SE,130,0.0,-999.0,48,-99.99,,,0.00,weatherlink.com 1.10,2013-04-29 17:57:00,
2013-04-29 13:12:00,85.7,63.0,29.84,WSW,238,0.0,-999.0,47,-99.99,,,0.00,weatherlink.com 1.10,2013-04-29 18:12:00,
2013-04-29 13:27:00,85.4,62.0,29.84,West,271,0.0,-999.0,46,-99.99,,,0.00,weatherlink.com 1.10,2013-04-29 18:27:00,
2013-04-29 13:42:00,85.4,60.0,29.83,SSW,197,2.0,-999.0,43,-99.99,,,0.00,weatherlink.com 1.10,2013-04-29 18:42:00,
2013-04-29 13:57:00,86.5,61.0,29.83,East,84,4.0,-999.0,42,-99.99,,,0.00,weatherlink.com 1.10,2013-04-29 18:57:00,
2013-04-29 14:12:00,85.8,59.0,29.83,South,178,0.0,-999.0,41,-99.99,,,0.00,weatherlink.com 1.10,2013-04-29 19:12:00,
2013-04-29 14:27:00,85.8,59.0,29.82,ESE,111,0.0,-999.0,41,-99.99,,,0.00,weatherlink.com 1.10,2013-04-29 19:27:00,
2013-04-29 14:42:00,86.8,62.0,29.82,WSW,241,0.0,-999.0,43,-99.99,,,0.00,weatherlink.com 1.10,2013-04-29 19:42:00,
2013-04-29 14:57:00,86.4,63.0,29.80,ESE,118,3.0,-999.0,45,-99.99,,,0.00,weatherlink.com 1.10,2013-04-29 19:57:00,
2013-04-29 15:12:00,86.6,63.0,29.80,East,82,0.0,-999.0,45,-99.99,,,0.00,weatherlink.com 1.10,2013-04-29 20:12:00,
2013-04-29 15:27:00,86.1,61.0,29.80,SW,215,0.0,-999.0,43,-99.99,,,0.00,weatherlink.com 1.10,2013-04-29 20:27:00,
2013-04-29 15:42:00,86.4,61.0,29.80,SSW,206,0.0,-999.0,42,-99.99,,,0.00,weatherlink.com 1.10,2013-04-29 20:42:00,
2013-04-29 15:57:00,86.6,62.0,29.79,East,96,0.0,-999.0,43,-99.99,,,0.00,weatherlink.com 1.10,2013-04-29 20:57:00,
2013-04-29 16:12:00,85.6,62.0,29.79,South,180,0.0,-999.0,45,-99.99,,,0.00,weatherlink.com 1.10,2013-04-29 21:12:00,
2013-04-29 16:27:00,85.2,61.0,29.77,ENE,66,1.0,-999.0,44,-99.99,,,0.00,weatherlink.com 1.10,2013-04-29 21:27:00,
2013-04-29 16:42:00,85.7,61.0,29.77,NNW,347,0.0,-999.0,43,-99.99,,,0.00,weatherlink.com 1.10,2013-04-29 21:42:00,
2013-04-29 16:57:00,85.6,59.0,29.77,WSW,249,0.0,-999.0,41,-99.99,,,0.00,weatherlink.com 1.10,2013-04-29 21:57:00,
2013-04-29 17:12:00,86.0,62.0,29.76,South,186,0.0,-999.0,45,-99.99,,,0.00,weatherlink.com 1.10,2013-04-29 22:12:00,
2013-04-29 17:27:00,84.5,63.0,29.76,ESE,117,0.0,-999.0,48,-99.99,,,0.00,weatherlink.com 1.10,2013-04-29 22:27:00,
2013-04-29 17:42:00,83.6,62.0,29.76,East,88,7.0,-999.0,49,-99.99,,,0.00,weatherlink.com 1.10,2013-04-29 22:42:00,
2013-04-29 17:57:00,84.1,63.0,29.76,ESE,110,0.0,-999.0,49,-99.99,,,0.00,weatherlink.com 1.10,2013-04-29 22:57:00,
2013-04-29 18:12:00,83.2,63.0,29.75,ESE,102,0.0,-999.0,50,-99.99,,,0.00,weatherlink.com 1.10,2013-04-29 23:12:00,
2013-04-29 18:27:00,82.9,61.0,29.76,ESE,109,0.0,-999.0,47,-99.99,,,0.00,weatherlink.com 1.10,2013-04-29 23:27:00,
2013-04-29 18:42:00,82.3,61.0,29.75,SE,134,0.0,-999.0,48,-99.99,,,0.00,weatherlink.com 1.10,2013-04-29 23:42:00,
2013-04-29 18:57:00,82.1,60.0,29.75,East,88,0.0,-999.0,48,-99.99,,,0.00,weatherlink.com 1.10,2013-04-29 23:57:00,
2013-04-29 19:12:00,81.6,59.0,29.75,ESE,105,10.0,-999.0,47,-99.99,,,0.00,weatherlink.com 1.10,2013-04-30 00:12:00,
2013-04-29 19:27:00,80.8,59.0,29.76,SE,140,4.0,-999.0,48,-99.99,,,0.00,weatherlink.com 1.10,2013-04-30 00:27:00,
2013-04-29 19:42:00,80.1,60.0,29.76,ESE,120,0.0,-999.0,51,-99.99,,,0.00,weatherlink.com 1.10,2013-04-30 00:42:00,
2013-04-29 19:57:00,79.4,61.0,29.76,ESE,103,0.0,-999.0,54,-99.99,,,0.00,weatherlink.com 1.10,2013-04-30 00:57:00,
2013-04-29 20:12:00,78.7,61.0,29.77,SE,130,0.0,-999.0,55,-99.99,,,0.00,weatherlink.com 1.10,2013-04-30 01:12:00,
2013-04-29 20:27:00,77.8,61.0,29.77,ESE,122,0.0,-999.0,56,-99.99,,,0.00,weatherlink.com 1.10,2013-04-30 01:27:00,
2013-04-29 20:42:00,77.1,60.0,29.77,ESE,119,0.0,-999.0,56,-99.99,,,0.00,weatherlink.com 1.10,2013-04-30 01:42:00,
2013-04-29 20:57:00,76.6,60.0,29.77,SSE,161,0.0,-999.0,56,-99.99,,,0.00,weatherlink.com 1.10,2013-04-30 01:57:00,
2013-04-29 21:12:00,76.1,60.0,29.78,SSE,160,0.0,-999.0,57,-99.99,,,0.00,weatherlink.com 1.10,2013-04-30 02:12:00,
2013-04-29 21:27:00,75.5,60.0,29.78,SSE,160,0.0,-999.0,59,-99.99,,,0.00,weatherlink.com 1.10,2013-04-30 02:27:00,
2013-04-29 21:42:00,74.8,60.0,29.78,SSE,157,0.0,-999.0,61,-99.99,,,0.00,weatherlink.com 1.10,2013-04-30 02:42:00,
2013-04-29 21:57:00,74.0,60.0,29.79,SSE,156,0.0,-999.0,62,-99.99,,,0.00,weatherlink.com 1.10,2013-04-30 02:57:00,
2013-04-29 22:12:00,73.6,60.0,29.78,SSE,155,0.0,-999.0,63,-99.99,,,0.00,weatherlink.com 1.10,2013-04-30 03:12:00,
2013-04-29 22:27:00,73.4,60.0,29.79,SE,126,0.0,-999.0,63,-99.99,,,0.00,weatherlink.com 1.10,2013-04-30 03:27:00,
2013-04-29 22:42:00,72.9,60.0,29.79,SE,126,0.0,-999.0,64,-99.99,,,0.00,weatherlink.com 1.10,2013-04-30 03:42:00,
2013-04-29 22:57:00,72.2,60.0,29.79,SE,126,0.0,-999.0,66,-99.99,,,0.00,weatherlink.com 1.10,2013-04-30 03:57:00,
2013-04-29 23:12:00,71.6,60.0,29.79,SE,126,0.0,-999.0,67,-99.99,,,0.00,weatherlink.com 1.10,2013-04-30 04:12:00,
2013-04-29 23:27:00,71.0,60.0,29.79,SE,125,0.0,-999.0,68,-99.99,,,0.00,weatherlink.com 1.10,2013-04-30 04:27:00,
2013-04-29 23:42:00,70.6,60.0,29.79,SE,126,0.0,-999.0,68,-99.99,,,0.00,weatherlink.com 1.10,2013-04-30 04:42:00,
2013-04-29 23:57:00,70.8,59.0,29.79,SSE,163,0.0,-999.0,67,-99.99,,,0.00,weatherlink.com 1.10,2013-04-30 04:57:00,